{"data":{"norad_id":67585,"intl_designator":"2026-016AA","name":"STARLINK-36560","alt_names":[],"object_type":"PAYLOAD","status":"ACTIVE","operator":null,"country":"US","launch_date":"2026-01-25","launch_site_code":"AFWTR","launch_vehicle":null,"mission":null,"orbit_class":"UNKNOWN","rcs_meters":null,"size_class":null,"mass_kg":null,"dimensions":null,"purposes":["comms"],"wikipedia_slug":null,"has_3d_model":false,"image_url":null,"decayed_at":null,"tle_current":{"epoch":"2026-09-19T21:31:29.185248Z","epoch_age_seconds":121092,"freshness":"FRESH","line1":"1 67585U 26016AA  26262.89686557  .00011771  00000+0  36622-3 0  9996","line2":"2 67585  97.2866 321.5029 0000210 107.9255 252.2010 15.33459381 36626","mean_motion":15.33459381,"eccentricity":2.1e-5,"inclination_deg":97.2866,"raan_deg":321.5029,"arg_perigee_deg":107.9255,"mean_anomaly_deg":252.201,"bstar":0.00036622,"rev_number":3662,"period_min":93.905323991102,"perigee_km":465.35667068929,"apogee_km":465.64410345955,"semimajor_km":6843.6373870744,"source":"CELESTRAK","updated_at":"2026-09-20T09:00:43.600308Z"}}}